Regional Weather Roundup
Issued by NWS Mobile, AL

Home | Current Version | Previous Version | Text Only | Print | Product List | Glossary On
Versions: 1 2 3 4 5 6 7 8 9 10 11 12 13 14 15 16 17 18 19 20 21 22 23 24 25 26 27
000
ASUS44 KMOB 030912
RWRMOB
REGIONAL WEATHER ROUNDUP
NATIONAL WEATHER SERVICE MOBILE AL
300 AM CST SAT DEC 03 2016

NOTE: "FAIR" INDICATES FEW OR NO CLOUDS BELOW 12,000 FEET WITH NO
      SIGNIFICANT WEATHER AND/OR OBSTRUCTIONS TO VISIBILITY.

  * THESE STATIONS ARE PART OF THE UNIVERSITY OF SOUTH ALABAMA
    MESONET AND ARE NOT UNDER NWS OR FAA QUALITY CONTROL.

ALZ061>064-031000-
COASTAL ALABAMA

CITY           SKY/WX    TMP DP  RH WIND       PRES   REMARKS
MOBILE REG APT LGT RAIN  52  45  77 S5        30.24R
BROOKLEY FIELD NOT AVBL
USA CAMPUS*      N/A     50  46  87 CALM      30.23R
DOG RIVER*       N/A     57  39  51 CALM      31.05R


CITY           SKY/WX    TMP DP  RH WIND       PRES   REMARKS
GULF SHORES    PTCLDY    57  36  44 E7        30.18R

$$

ALZ051>060-031000-
INTERIOR SOUTHWEST AND SOUTH CENTRAL ALABAMA

CITY           SKY/WX    TMP DP  RH WIND       PRES   REMARKS
GREENVILLE     PTCLDY    51  36  56 E5        30.21F
EVERGREEN      NOT AVBL
ATMORE*          N/A     54  36  50 NE7       30.22S
ANDALUSIA/OPP  CLOUDY    57  34  41 E7        30.21F
ANDALUSIA*       N/A     52  37  58 E3        30.19F
FLORALA APT    CLOUDY    51  36  56 NE6       30.22F
FLORALA*         N/A     52  39  62 CALM      30.99F

$$

FLZ001>006-031000-
WESTERN FLORIDA PANHANDLE

CITY           SKY/WX    TMP DP  RH WIND       PRES   REMARKS
PENSACOLA      NOT AVBL
NAS PENSACOLA  PTCLDY    59  38  45 NE12      30.18S
MILTON         LGT RAIN  54  35  48 NE5       30.20F
WHTNG S FIELD  CLOUDY    57  37  47 E6        30.20F


CITY           SKY/WX    TMP DP  RH WIND       PRES   REMARKS
JAY*             N/A     54  34  47 N6        30.21S
DUKE FIELD     CLOUDY    52  37  56 NE5       30.19F
CRESTVIEW      NOT AVBL
VALPARAISO     CLOUDY    56  33  42 E9        30.18F
DESTIN         NOT AVBL

$$

MSZ076-079-031000-
INTERIOR SOUTHEAST MISSISSIPPI

CITY           SKY/WX    TMP DP  RH WIND       PRES   REMARKS
LEAKESVILLE*   NOT AVBL
AGRICOLA*      NOT AVBL

$$

MARINE OBSERVATIONS

STATION/POSITION TIME  TEMP    WIND        PRES    WAVE
                       AIR SEA DIR/SP/G            HT/PER
                 (UTC) (F)     (DEG/KT/KT) (MB)    (FT/S)
PASCAGOULA       0842   58      50/  6/  8 1022.0R
PETIT BOIS ISLND 0842   61      70/ 16/ 20 1023.0R
GRAND BAY        0730   60      80/ 11     1022.0F
KATRINA CUT      0830   60      80/ 17     1021.7S
CEDAR POINT      0830   59      80/ 13     1021.7R
E DAUPHIN ISLAND 0900   60      70/ 11/ 12 1022.4R
MIDDLE BAY LIGHT 0830   59      60/ 16     1021.7S
USCG MOBILE BAY  0842   57 63   60/  6/  8 1023.2R
STATE DOCKS      0842   55 65              1022.7R
MEAHER PARK      0830   57      50/  4     1021.7F
WEEKS BAY        0745   56                   N/A
FORT MORGAN      0842   59      90/ 11/ 14 1021.6R
12 S ORANGE BCH  0850   65 71   90/ 19/ 23 1021.5F   4/ 6
PENSACOLA BAY    0842   58 64   40/  8/ 12 1022.0F
64 S DAUPHIN ISL 0850   70 76   90/ 21/ 25 1019.9F   7/ 7
67 S FORT MORGAN 0830   68      70/ 23     1020.3S

$$

SELECTED LOCATIONS ACROSS THE REGION

CITY           SKY/WX    TMP DP  RH WIND       PRES   REMARKS
NEW ORLEANS    NOT AVBL
GULFPORT       NOT AVBL
PASCAGOULA AP  NOT AVBL
PASCAGOULA*    NOT AVBL
HATTIESBURG    NOT AVBL
LAUREL         CLOUDY    52  36  54 NE3       30.21S
MERIDIAN       CLOUDY    50  41  71 N3        30.23
JACKSON        LGT RAIN  49  41  74 CALM      30.23S
MONTGOMERY     CLOUDY    49  37  63 NE5       30.25F
TROY           CLOUDY    47  42  83 NE3       30.24F
ASHFORD*         N/A     52  37  58 E3        30.19F
DOTHAN         NOT AVBL
PANAMA CITY    NOT AVBL

$$





USA.gov is the U.S. government's official web portal to all federal, state and local government web resources and services.